[[{"header":{"parameterUnit":"m.s-1","parameterCategory":1,"la1":30.2991,"la2":30.254,"lo1":-89.0895,"lo2":-89.0444,"dy":0.0017,"dx":0.0017,"nx":28,"ny":28,"refTime":"2024-08-08T09:00:00:Z","depth":0,"parameterNumber":2,"parameterNumberName":"U-component_of_WINDS"},"data":[0,0,0,0,0,0,0,0,0,0,0,0,0,0,0,0,0,0,0,0,0,0,0,0,0,0,0,0,0,0,0,0,0,0,0,0,0,0,0,0,0,0,0,0,0,0,0,0,0,0,0,0,0,0,0,0,0,0,3.4676,3.4677,0,3.4745,3.4745,3.4746,3.4744,3.4743,3.4742,3.4741,3.4811,3.4813,3.4816,0,0,0,0,0,0,0,0,0,0,0,0,0,3.4544,3.4546,3.4676,3.4677,3.4678,3.4745,3.4746,3.4746,3.4744,3.4743,3.4742,3.4741,3.481,3.4813,3.4816,0,0,0,0,0,0,0,0,0,0,0,0,0,3.4606,3.4547,3.4676,3.4685,3.4686,3.4744,3.4746,3.4747,3.4744,3.4743,3.4741,3.474,3.4809,3.4813,3.4817,3.4871,0,0,3.4829,3.4831,0,0,0,0,0,0,0,0,3.4602,3.4611,3.4682,3.4684,3.4686,3.4734,3.4724,3.4788,3.4745,3.4722,3.4741,3.4739,3.4786,3.4792,3.4808,3.4874,3.4877,3.483,3.4832,3.4834,3.4835,0,0,0,0,0,0,0,3.4598,3.4608,3.4703,3.4684,3.4686,3.4685,3.4693,3.4736,3.4761,3.4724,3.4724,3.4732,3.4787,3.4804,3.481,3.4878,3.483,3.4833,3.4836,3.4837,3.4994,3.4995,0,0,0,0,0,0,3.4592,3.4604,3.4701,3.4705,3.464,3.4689,3.4697,3.472,3.4761,3.4766,3.4733,3.4732,3.4798,3.4805,3.4812,3.488,3.4834,3.4838,3.484,3.4992,3.4994,3.4996,0,0,0,0,0,0,3.4589,3.46,3.4698,3.4655,3.4667,3.4693,3.4719,3.4722,3.4739,3.4768,3.4772,3.4746,3.4797,3.4806,3.4857,3.4882,3.484,3.4843,3.499,3.4993,3.4995,3.5014,0,0,0,0,0,0,3.4585,3.4599,3.462,3.4655,3.4669,3.4741,3.472,3.4725,3.4747,3.4745,3.4781,3.4786,3.4797,3.4851,3.4861,3.4887,3.4847,3.4988,3.4991,3.4994,3.5011,3.5017,3.5022,0,0,0,0,0,3.458,3.4622,3.4621,3.4632,3.4695,3.4743,3.4751,3.4763,3.4749,3.477,3.4788,3.4785,3.4878,3.4856,3.4867,3.4895,3.4987,3.499,3.4994,3.5009,3.5016,3.5022,0,0,0,0,0,0,3.4588,3.4626,3.4626,3.468,3.4708,3.4742,3.4769,3.4769,3.4802,3.4799,3.4812,3.482,3.4871,3.4888,3.4863,3.4951,3.493,3.4937,3.4938,3.4944,3.4949,3.4945,3.485,0,0,0,0,0,3.4596,3.4631,3.4663,3.4707,3.4722,3.4743,3.4764,3.4771,3.48,3.4812,3.4834,3.4864,3.49,3.4923,3.4957,3.5014,3.5022,3.5039,3.5044,3.5048,3.5053,3.5086,3.5095,3.5009,3.5009,3.5009,0,0,3.4612,3.4638,3.4659,3.4709,3.4732,3.4769,3.4753,3.4792,3.4819,3.4818,3.4867,3.4885,3.4918,3.4973,3.4998,3.4988,3.5079,3.5053,3.5056,3.5059,3.5091,3.5099,3.5107,3.5011,3.5011,3.501,0,0,3.4662,3.4684,3.4724,3.4748,3.4783,3.4797,3.4807,3.4842,3.4854,3.4904,3.4904,3.4937,3.4998,3.5023,3.5043,3.5104,3.5103,3.5115,3.5143,3.5175,3.5182,3.5188,3.5211,3.5219,3.512,3.512,3.5121,0,3.4678,3.4733,3.4745,3.4785,3.4808,3.4809,3.4851,3.4873,3.4918,3.4934,3.4923,3.5001,3.5023,3.5084,3.51,3.5116,3.5128,3.5111,3.518,3.5186,3.5192,3.5214,3.5223,3.5122,3.5122,3.5122,3.5121,0,3.4752,3.479,3.4819,3.4863,3.4889,3.4929,3.4948,3.4973,3.4979,3.4994,3.5046,3.5073,3.5114,3.5129,3.5134,3.5192,3.5185,3.5177,3.5157,3.5201,3.5222,3.5231,3.5124,3.5123,3.5123,3.5123,0,0,3.4807,3.4858,3.4869,3.489,3.493,3.496,3.5001,3.5042,3.5064,3.5095,3.513,3.5183,3.5176,3.52,3.5207,3.5236,3.5284,3.5224,3.5225,3.5235,3.5352,3.5358,3.5368,3.5284,3.5285,3.5287,3.5349,0,3.4861,3.4935,3.4948,3.5012,3.5049,3.5052,3.5088,3.5117,3.5133,3.5167,3.5185,3.5223,3.521,3.5224,3.5252,3.5272,3.5308,3.5268,3.5318,3.5319,3.531,3.5379,3.5385,3.5443,3.5357,3.5359,3.536,0,3.4934,3.4968,3.5037,3.5074,3.5089,3.5122,3.5161,3.5193,3.5226,3.5236,3.5264,3.5269,3.5313,3.5291,3.5352,3.5325,3.5346,3.536,3.5362,3.5368,3.5343,3.5387,3.5461,3.5471,3.5373,3.5372,3.5371,0,3.4969,3.5032,3.5082,3.5099,3.5143,3.5166,3.5185,3.5217,3.5242,3.5276,3.5293,3.5331,3.5353,3.5384,3.54,3.5382,3.5461,3.544,3.5471,3.5471,3.5488,3.5487,3.5568,3.55,3.55,3.55,3.55,0,3.5029,3.5071,3.5098,3.5129,3.5177,3.5192,3.5239,3.5258,3.5286,3.5321,3.5326,3.5359,3.5377,3.5413,3.5426,3.5476,3.5485,3.5495,3.5498,3.5495,3.5494,3.551,3.5507,3.5502,3.5502,3.5501,3.5501,0,3.5076,3.5096,3.515,3.5188,3.5199,3.5232,3.5265,3.5295,3.5312,3.5356,3.5367,3.5394,3.5436,3.5455,3.5507,3.5516,3.5574,3.5573,3.5563,3.5564,3.5595,3.5592,3.5689,3.5704,3.5626,3.5626,3.5627,0,3.5113,3.5146,3.5188,3.5212,3.5232,3.527,3.5296,3.5312,3.5339,3.538,3.5406,3.5449,3.5484,3.5552,3.5576,3.5616,3.5618,3.5649,3.5624,3.5621,3.562,3.5618,3.5622,3.5654,3.5655,3.5655,3.5656,0,3.5178,3.5186,3.5223,3.5264,3.5294,3.5326,3.5358,3.5378,3.54,3.5429,3.5473,3.5501,3.5555,3.5598,3.564,3.5661,3.5663,3.5664,3.5673,3.5671,3.5664,3.567,3.5576,3.5661,3.5661,3.566,3.566,3.566,3.5222,3.5252,3.5287,3.5328,3.5354,3.5384,3.5415,3.5436,3.5473,3.5519,3.5527,3.5574,3.5608,3.5666,3.5688,3.5725,3.5718,3.5731,3.5735,3.5739,3.5741,3.5657,3.5733,3.5733,3.5733,3.5733,3.5733,0,3.5288,3.5311,3.5348,3.5394,3.5426,3.5426,3.5461,3.5489,3.5531,3.5563,3.5598,3.5649,3.5691,3.572,3.5763,3.5787,3.579,3.5798,3.5797,3.5802,3.5745,3.5733,3.5796,3.5796,3.5796,3.5796,3.5796,3.5796,3.5326,3.5377,3.5391,3.5455,3.5478,3.5525,3.5546,3.5574,3.56,3.5657,3.5693,3.5711,3.5742,3.5787,3.5827,3.5834,3.585,3.5859,3.5867,3.5812,3.5806,3.5799,3.5788,3.5863,3.5863,3.5921,3.5922,3.5922]},{"header":{"parameterUnit":"m.s-1","parameterCategory":1,"la1":30.2991,"la2":30.254,"lo1":-89.0895,"lo2":-89.0444,"dy":0.0017,"dx":0.0017,"nx":28,"ny":28,"refTime":"2024-08-08T09:00:00:Z","depth":0,"parameterNumber":3,"parameterNumberName":"V-component_of_WINDS"},"data":[0,0,0,0,0,0,0,0,0,0,0,0,0,0,0,0,0,0,0,0,0,0,0,0,0,0,0,0,0,0,0,0,0,0,0,0,0,0,0,0,0,0,0,0,0,0,0,0,0,0,0,0,0,0,0,0,0,0,-1.9047,-1.9048,0,-1.9096,-1.9096,-1.9097,-1.9126,-1.9126,-1.9126,-1.9126,-1.9174,-1.9175,-1.9176,0,0,0,0,0,0,0,0,0,0,0,0,0,-1.8979,-1.898,-1.9047,-1.9048,-1.9048,-1.9096,-1.9096,-1.9097,-1.9126,-1.9126,-1.9126,-1.9126,-1.9174,-1.9175,-1.9176,0,0,0,0,0,0,0,0,0,0,0,0,0,-1.9016,-1.898,-1.9047,-1.9068,-1.9071,-1.9096,-1.9096,-1.9097,-1.9126,-1.9126,-1.9126,-1.9127,-1.9173,-1.9175,-1.9176,-1.9183,0,0,-1.9182,-1.9182,0,0,0,0,0,0,0,0,-1.9014,-1.9018,-1.9065,-1.9067,-1.907,-1.9105,-1.909,-1.9126,-1.9126,-1.9105,-1.9126,-1.9127,-1.9151,-1.9154,-1.9163,-1.9185,-1.9187,-1.9182,-1.9183,-1.9184,-1.9184,0,0,0,0,0,0,0,-1.9011,-1.9016,-1.9066,-1.9065,-1.9068,-1.9076,-1.9081,-1.9097,-1.9126,-1.9107,-1.9109,-1.9115,-1.9152,-1.9161,-1.9164,-1.9188,-1.9182,-1.9183,-1.9184,-1.9185,-1.922,-1.922,0,0,0,0,0,0,-1.9005,-1.9014,-1.9065,-1.9068,-1.9042,-1.9077,-1.9083,-1.9093,-1.9126,-1.9131,-1.9114,-1.9116,-1.9158,-1.9162,-1.9166,-1.9177,-1.9184,-1.9185,-1.9186,-1.922,-1.922,-1.922,0,0,0,0,0,0,-1.9004,-1.901,-1.9063,-1.9042,-1.9049,-1.9078,-1.9089,-1.9094,-1.9103,-1.9132,-1.9137,-1.9118,-1.9158,-1.9164,-1.9179,-1.9179,-1.9186,-1.9188,-1.9221,-1.922,-1.922,-1.9199,0,0,0,0,0,0,-1.9002,-1.9009,-1.9011,-1.9041,-1.905,-1.9075,-1.9089,-1.9095,-1.9107,-1.9109,-1.9137,-1.9141,-1.9159,-1.9177,-1.9181,-1.9182,-1.9189,-1.9221,-1.922,-1.922,-1.92,-1.9198,-1.9197,0,0,0,0,0,-1.8999,-1.9002,-1.9011,-1.9017,-1.9054,-1.9075,-1.908,-1.9101,-1.9106,-1.911,-1.9128,-1.9141,-1.9179,-1.9178,-1.9183,-1.9184,-1.9221,-1.9221,-1.922,-1.92,-1.9198,-1.9197,0,0,0,0,0,0,-1.897,-1.9007,-1.9017,-1.903,-1.905,-1.908,-1.9084,-1.9098,-1.9115,-1.9116,-1.9141,-1.9147,-1.916,-1.9174,-1.9172,-1.9194,-1.9201,-1.9202,-1.9184,-1.9183,-1.9181,-1.9177,-1.919,0,0,0,0,0,-1.8965,-1.898,-1.9011,-1.9019,-1.9029,-1.9055,-1.9065,-1.908,-1.91,-1.9108,-1.9128,-1.9147,-1.9164,-1.9174,-1.919,-1.9202,-1.9209,-1.9206,-1.9204,-1.9203,-1.9203,-1.9212,-1.9212,-1.922,-1.922,-1.922,0,0,-1.8955,-1.8977,-1.8985,-1.9014,-1.9031,-1.9046,-1.9061,-1.9076,-1.9087,-1.911,-1.9127,-1.9142,-1.9165,-1.9179,-1.9186,-1.9191,-1.9203,-1.9202,-1.9201,-1.9202,-1.9212,-1.9211,-1.921,-1.922,-1.922,-1.922,0,0,-1.8945,-1.8963,-1.8973,-1.899,-1.9016,-1.9033,-1.9036,-1.9065,-1.9077,-1.9094,-1.9112,-1.9126,-1.9153,-1.917,-1.9182,-1.9181,-1.9193,-1.9185,-1.9177,-1.9186,-1.9185,-1.9185,-1.9186,-1.9185,-1.9186,-1.9185,-1.9185,0,-1.8929,-1.8952,-1.8976,-1.899,-1.9003,-1.9027,-1.9038,-1.9053,-1.9082,-1.9091,-1.9096,-1.9133,-1.9149,-1.9169,-1.9169,-1.9177,-1.9182,-1.9182,-1.9183,-1.9183,-1.9183,-1.9184,-1.9184,-1.9184,-1.9185,-1.9185,-1.9185,0,-1.8933,-1.8949,-1.8954,-1.8983,-1.8997,-1.9009,-1.9035,-1.9046,-1.906,-1.9078,-1.9096,-1.9118,-1.914,-1.9146,-1.9159,-1.9168,-1.917,-1.9179,-1.9187,-1.9181,-1.9182,-1.9183,-1.9183,-1.9183,-1.9184,-1.9184,0,0,-1.8904,-1.8948,-1.895,-1.8965,-1.8996,-1.9009,-1.9023,-1.9046,-1.9056,-1.9076,-1.9089,-1.9113,-1.9122,-1.9136,-1.9151,-1.9158,-1.9158,-1.9167,-1.9168,-1.9165,-1.9171,-1.9165,-1.9165,-1.9167,-1.9167,-1.9167,-1.917,0,-1.8899,-1.8926,-1.8949,-1.8967,-1.8983,-1.9007,-1.9019,-1.904,-1.9057,-1.9073,-1.9092,-1.9109,-1.9119,-1.9128,-1.9137,-1.9156,-1.916,-1.9156,-1.918,-1.918,-1.9174,-1.9165,-1.9158,-1.9159,-1.917,-1.917,-1.917,0,-1.8896,-1.8917,-1.8938,-1.897,-1.8977,-1.8988,-1.9013,-1.9028,-1.9052,-1.9064,-1.9081,-1.9097,-1.9114,-1.9121,-1.9145,-1.9142,-1.9153,-1.9164,-1.9165,-1.9168,-1.9175,-1.9169,-1.916,-1.916,-1.9171,-1.9171,-1.9171,0,-1.8875,-1.8908,-1.8925,-1.8937,-1.8974,-1.8982,-1.8998,-1.9023,-1.9036,-1.9057,-1.9066,-1.9088,-1.9101,-1.9118,-1.9141,-1.9143,-1.9163,-1.9171,-1.9173,-1.9173,-1.9176,-1.9176,-1.9169,-1.9182,-1.9182,-1.9182,-1.9182,0,-1.8867,-1.8879,-1.8917,-1.8927,-1.8942,-1.8968,-1.8982,-1.9,-1.9022,-1.9037,-1.9058,-1.9072,-1.9101,-1.9118,-1.9136,-1.9154,-1.9158,-1.9169,-1.9174,-1.9168,-1.9166,-1.9175,-1.9176,-1.9182,-1.9182,-1.9182,-1.9182,0,-1.8845,-1.8871,-1.8891,-1.8926,-1.8935,-1.8945,-1.8974,-1.8986,-1.9005,-1.9024,-1.903,-1.9059,-1.9081,-1.9106,-1.9134,-1.9147,-1.9164,-1.917,-1.9155,-1.9158,-1.916,-1.916,-1.916,-1.9162,-1.9172,-1.9172,-1.9172,0,-1.8839,-1.8849,-1.8885,-1.8897,-1.8913,-1.8932,-1.8946,-1.8973,-1.8987,-1.9018,-1.9026,-1.9049,-1.9069,-1.9103,-1.9127,-1.915,-1.9157,-1.9156,-1.9161,-1.9155,-1.9159,-1.9158,-1.916,-1.9154,-1.9154,-1.9154,-1.9154,0,-1.8825,-1.8838,-1.8858,-1.8884,-1.8901,-1.8921,-1.8943,-1.8952,-1.8983,-1.8998,-1.9021,-1.9037,-1.9068,-1.9091,-1.9118,-1.9134,-1.915,-1.9152,-1.9154,-1.9148,-1.914,-1.9146,-1.9152,-1.9152,-1.9152,-1.9152,-1.9152,-1.9152,-1.8811,-1.8822,-1.8851,-1.8873,-1.8893,-1.8913,-1.8927,-1.8949,-1.8968,-1.8997,-1.9011,-1.9034,-1.9061,-1.9098,-1.9114,-1.9133,-1.9138,-1.914,-1.9141,-1.9142,-1.9141,-1.9137,-1.9138,-1.9138,-1.9138,-1.9138,-1.9138,0,-1.88,-1.882,-1.884,-1.8871,-1.8889,-1.8904,-1.8929,-1.8943,-1.8964,-1.8987,-1.9008,-1.9035,-1.9058,-1.9085,-1.9111,-1.9121,-1.9128,-1.9126,-1.9126,-1.913,-1.9134,-1.913,-1.912,-1.912,-1.912,-1.912,-1.912,-1.912,-1.8796,-1.8816,-1.8833,-1.8863,-1.8883,-1.8907,-1.892,-1.894,-1.8959,-1.8989,-1.9009,-1.9027,-1.9053,-1.9081,-1.9103,-1.911,-1.9119,-1.9115,-1.9125,-1.9128,-1.9129,-1.9131,-1.9128,-1.9117,-1.9117,-1.9119,-1.9119,-1.9119]}]]